Location: Praha
(50.0830°N, 14.4670°E)
Time: 07:42:43
(UTC+02:00)

ISS - Pass Details

Date: 27 May 2023
Orbit: 411 x 418 km, 51.6° (Epoch: 07 June)

Event Time Altitude Azimuth Distance (km) Brightness Sun altitude
Rises 21:56:43 0° 287° (WNW) 2,358 1.2 -8.0°
Reaches altitude 10° 21:58:56 10° 277° (W) 1,495 -0.2 -8.2°
Maximum altitude 22:01:58 32° 212° (SSW) 737 -2.7 -8.5°
Enters shadow 22:04:39 12° 150° (SSE) 1,368 -1.8 -8.8°
